Regional Weather Roundup
Issued by NWS

Home | Current Version | Previous Version | Text Only | Print | Product List | Glossary Off
Versions: 1 2 3 4 5 6 7 8 9 10 11 12 13 14 15 16 17 18 19 20 21 22 23 24 25 26 27 28 29 30 31 32 33 34 35 36 37 38 39 40 41 42 43 44 45 46 47 48 49 50

000
ASUS43 KMKX 252059
RWRWI

WISCONSIN REGIONAL WEATHER ROUNDUP
NATIONAL WEATHER SERVICE MILWAUKEE/SULLIVAN WI
400 PM CDT THU MAY 25 2017

NOTE: "FAIR" INDICATES FEW OR NO CLOUDS BELOW 12,000 FEET WITH NO
SIGNIFICANT WEATHER AND/OR OBSTRUCTIONS TO VISIBILITY.

WIZ001-002-006>008-014>016-023>028-252200-
NORTHWEST WISCONSIN

CITY           SKY/WX    TMP DP  RH WIND       PRES   REMARKS
SUPERIOR ARPT  NOT AVBL
ASHLAND        SUNNY     63  45  51 NE8       29.70F
HAYWARD        PTSUNNY   72  46  39 S14G21    29.66F
SIREN          MOSUNNY   69  47  45 SE8       29.66F
CUMBERLAND     MOSUNNY   68  48  49 SE10      29.66F
RICE LAKE      MOSUNNY   70  47  45 SE9       29.68F
CHETEK         MOSUNNY   71  52  50 SE10G20   29.67S
LADYSMITH      MOSUNNY   72  49  44 S5        29.68F
EAU CLAIRE     MOSUNNY   72  50  45 SE5       29.64F
MENOMONIE      PTSUNNY   73  51  47 SE8       29.66S
NEW RICHMOND   CLOUDY    68  50  53 S8        29.66F
OSCEOLA        MOSUNNY   70  51  51 S9        29.68S
$$

WIZ003>005-009-010-017-018-252200-
NORTH CENTRAL WISCONSIN

CITY           SKY/WX    TMP DP  RH WIND       PRES   REMARKS
MANITOWISH WTR MOSUNNY   68  46  44 E3        29.68F
ARBOR VITAE    PTSUNNY   72  46  40 E7        29.68S
WOODRUFF       PTSUNNY   72  46  40 E7        29.68S
RHINELANDER    PTSUNNY   72  47  40 MISG      29.68F
EAGLE RIVER    MOSUNNY   69  43  38 SE3       29.68F
LAND O LAKES   CLOUDY    70  44  38 SE6       29.71S
PHILLIPS       CLOUDY    69  46  44 CALM      29.67S
TOMAHAWK       MOSUNNY   72  47  40 SE5       29.68S
MEDFORD        PTSUNNY   70  51  51 S5        29.67S
MERRILL        PTSUNNY   70  48  45 SE6       29.67S
$$

WIZ029-030-035-036-043>047-252200-
CENTRAL WISCONSIN

CITY           SKY/WX    TMP DP  RH WIND       PRES   REMARKS
WAUSAU         MOSUNNY   72  49  44 SW7       29.65S
MOSINEE        MOSUNNY   72  48  43 S3        29.68S
MARSHFIELD     MOSUNNY   72  50  45 SE7       29.66F
STEVENS POINT  MOSUNNY   68  48  48 S5        29.67F
WAUPACA        MOSUNNY   73  50  44 NE5       29.67F
WAUTOMA        MOSUNNY   71  51  49 VRB5      29.67F
WISC RAPIDS    MOSUNNY   74  50  42 VRB3      29.67F
CAMP DOUGLAS   NOT AVBL
$$

WIZ011>013-019>022-031-037>040-048>050-252200-
NORTHEAST WISCONSIN

CITY           SKY/WX    TMP DP  RH WIND       PRES   REMARKS
ANTIGO         PTSUNNY   67  49  52 E5        29.68F
SHAWANO        MOSUNNY   74  50  43 E7        29.67S
OCONTO         SUNNY     67  48  50 E10       29.66F
STURGEON BAY   SUNNY     66  51  58 NE12      29.67S
GREEN BAY      SUNNY     68  54  60 NE13      29.67F
MANITOWOC      NOT AVBL
APPLETON       MOSUNNY   70  46  43 NE14G21   29.66S
CLINTONVILLE   MOSUNNY   72  48  43 E9        29.66F
OSHKOSH        SUNNY     68  52  56 NE9       29.67S
$$

WIZ032>034-041-042-053>061-252200-
SOUTHWEST WISCONSIN

CITY           SKY/WX    TMP DP  RH WIND       PRES   REMARKS
LA CROSSE      MOSUNNY   73  56  54 SW8       29.65F
SPARTA         SUNNY     71  52  50 S3        29.66F
VIROQUA        PTSUNNY   69  53  56 MISG      29.68S
BOSCOBEL       MOSUNNY   73  53  49 VRB5      29.67S
PRAIRIE DU CHI SUNNY     71  52  49 S5        29.66S
PLATTEVILLE    MOSUNNY   67  58  72 NE5       29.68F
$$

WIZ056-057-062-063-064-067-068-252200-
SOUTH CENTRAL WISCONSIN

CITY           SKY/WX    TMP DP  RH WIND       PRES   REMARKS
REEDSBURG      PTSUNNY   70  54  56 S7        29.67S
BARABOO/DELLS  MOSUNNY   71  50  46 CALM      29.67S
LONE ROCK      NOT AVBL
MINERAL POINT  MOSUNNY   68  54  60 CALM      29.68F
MADISON        PTSUNNY   69  54  58 NE10      29.66F
MIDDLETON      MOSUNNY   71  53  52 N3        29.68S
WATERTOWN      CLOUDY    68  54  61 N8        29.66S
MONROE         CLOUDY    68  52  56 NE7       29.67F
JANESVILLE     PTSUNNY   68  52  56 N8        29.67S
$$

WIZ051-052-058>065-066-070>072-252200-
SOUTHEAST WISCONSIN

CITY           SKY/WX    TMP DP  RH WIND       PRES   REMARKS
MILWAUKEE      MOSUNNY   61  51  70 NE16G22   29.66S
WAUKESHA       PTSUNNY   70  48  46 NE13      29.66S
MILWAUKEE/TIMM MOSUNNY   68  48  49 NE14      29.66R
RACINE         SUNNY     61  51  70 N13G22    29.68R
KENOSHA        MOSUNNY   67  52  58 N14G21    29.65S
FOND DU LAC    SUNNY     70  52  52 NE13      29.67S
SHEBOYGAN      PTSUNNY   61  55  81 NE15      29.67R
WEST BEND      MOSUNNY   68  50  52 NE10      29.65S
JUNEAU         MOSUNNY   67  53  61 N6        29.68R
$$

LSZ147-162-252200-
LAKE SUPERIOR

STATION/POSITION TIME  TEMP    WIND        PRES    WAVE
                       AIR SEA DIR/SP/G            HT/PER
                 (UTC) (F)     (DEG/KT/KT) (MB)    (FT/S)
$$

LMZ867-665-643>646-252200-
LAKE MICHIGAN

STATION/POSITION TIME  TEMP    WIND        PRES    WAVE
                       AIR SEA DIR/SP/G            HT/PER
                 (UTC) (F)     (DEG/KT/KT) (MB)    (FT/S)
$$

TC  - TEMPERATURE IN CELSIUS
VSB - VISIBILITY IN STATUTE MILES
WCI - WIND CHILL INDEX
HX  - HEAT INDEX





USA.gov is the U.S. government's official web portal to all federal, state and local government web resources and services.